AVA3942 MMMX-SKBO

Flight info

Callsign AVA3942
Flight time 4h 2m
Altitude 35000
Route IKLAN2A IKLAN DCT AVALI UT152 ASOKU UM419 ANSON/N0465F360 UM419 AROVI/N0469F350 UM419 TBG UP527 UIB DCT ARMUM DCT TIRTO TIRTO4E
Aircraft A320/M-SDE3FGHIRWY/LB1

Departure

Time 2026-05-04 02:38
Airport Mexico City Benito Juárez International Airport (MMMX)

Arrival

Time 2026-05-04 06:40
Airport El Dorado International Airport (SKBO)
Time Latitude Longitude Altitude Speed Heading
2026-05-04 01:16 19.43370 -99.08387 7302 ft 0 kts 328°
2026-05-04 02:16 19.43359 -99.08380 7302 ft 4 kts 329°
2026-05-04 02:16 19.43336 -99.08365 7302 ft 4 kts 329°
2026-05-04 02:17 19.43314 -99.08350 7302 ft 4 kts 323°
2026-05-04 02:17 19.43293 -99.08332 7302 ft 4 kts 314°
2026-05-04 02:17 19.43284 -99.08323 7302 ft 1 kts 312°
2026-05-04 02:17 19.43284 -99.08322 7302 ft 0 kts 312°
2026-05-04 02:21 19.43284 -99.08323 7302 ft 0 kts 304°
2026-05-04 02:21 19.43284 -99.08339 7302 ft 2 kts 264°
2026-05-04 02:21 19.43281 -99.08348 7302 ft 0 kts 250°
2026-05-04 02:26 19.43276 -99.08360 7302 ft 6 kts 246°
2026-05-04 02:26 19.43254 -99.08402 7298 ft 5 kts 240°
2026-05-04 02:27 19.43234 -99.08437 7301 ft 6 kts 238°
2026-05-04 02:27 19.43204 -99.08489 7301 ft 9 kts 239°
2026-05-04 02:27 19.43174 -99.08543 7301 ft 8 kts 239°
2026-05-04 02:27 19.43131 -99.08620 7301 ft 16 kts 239°
2026-05-04 02:28 19.43079 -99.08713 7300 ft 15 kts 239°
2026-05-04 02:28 19.43023 -99.08813 7300 ft 14 kts 239°
2026-05-04 02:28 19.42982 -99.08885 7301 ft 9 kts 239°
2026-05-04 02:28 19.42942 -99.08956 7301 ft 16 kts 239°
2026-05-04 02:29 19.42892 -99.09014 7301 ft 6 kts 192°
2026-05-04 02:29 19.42885 -99.09014 7301 ft 0 kts 184°
2026-05-04 02:36 19.42845 -99.09005 7301 ft 7 kts 156°
2026-05-04 02:36 19.42819 -99.08967 7301 ft 10 kts 103°
2026-05-04 02:36 19.42840 -99.08901 7302 ft 9 kts 60°
2026-05-04 02:37 19.42878 -99.08833 7302 ft 17 kts 59°
2026-05-04 02:37 19.43011 -99.08596 7303 ft 70 kts 59°
2026-05-04 02:37 19.43375 -99.07950 7304 ft 132 kts 59°
2026-05-04 02:37 19.43938 -99.06948 7320 ft 181 kts 59°
2026-05-04 02:38 19.44589 -99.05768 8083 ft 187 kts 60°
2026-05-04 02:38 19.45245 -99.04564 8952 ft 192 kts 58°
2026-05-04 02:38 19.45962 -99.03281 9042 ft 212 kts 58°
2026-05-04 02:38 19.46755 -99.01890 9173 ft 229 kts 57°
2026-05-04 02:39 19.47619 -99.00373 9296 ft 252 kts 58°
2026-05-04 02:39 19.48565 -98.98708 9409 ft 274 kts 58°
2026-05-04 02:39 19.49565 -98.96939 9634 ft 285 kts 59°
2026-05-04 02:39 19.50601 -98.95098 9910 ft 296 kts 60°
2026-05-04 02:40 19.51682 -98.93169 10120 ft 315 kts 60°
2026-05-04 02:40 19.52834 -98.91109 10205 ft 336 kts 59°
2026-05-04 02:40 19.54242 -98.89046 10302 ft 356 kts 52°
2026-05-04 02:40 19.55894 -98.86996 10381 ft 373 kts 48°
2026-05-04 02:41 19.57695 -98.84947 10601 ft 384 kts 46°
2026-05-04 02:41 19.59564 -98.82893 11014 ft 389 kts 46°
2026-05-04 02:41 19.61453 -98.80819 11496 ft 392 kts 46°
2026-05-04 02:41 19.63336 -98.78723 12005 ft 394 kts 46°
2026-05-04 02:42 19.65213 -98.76595 12511 ft 396 kts 46°
2026-05-04 02:42 19.67084 -98.74445 13044 ft 398 kts 46°
2026-05-04 02:42 19.68957 -98.72274 13676 ft 399 kts 46°
2026-05-04 02:42 19.71057 -98.70345 14115 ft 399 kts 28°
2026-05-04 02:43 19.73597 -98.69280 14501 ft 399 kts 12°
2026-05-04 02:43 19.76374 -98.68825 14920 ft 400 kts
2026-05-04 02:43 19.79168 -98.68759 15329 ft 402 kts 358°
2026-05-04 02:43 19.81966 -98.68840 15737 ft 404 kts 357°
2026-05-04 02:44 19.84786 -98.68910 16137 ft 407 kts 358°
2026-05-04 02:44 19.87631 -98.68894 16538 ft 410 kts
2026-05-04 02:44 19.90450 -98.68784 16906 ft 413 kts
2026-05-04 02:44 19.93327 -98.68711 17286 ft 414 kts 356°
2026-05-04 02:45 19.96175 -98.69104 17684 ft 414 kts 345°
2026-05-04 02:45 19.98908 -98.70085 18046 ft 415 kts 334°
2026-05-04 02:45 20.01401 -98.71634 18421 ft 416 kts 323°
2026-05-04 02:45 20.03738 -98.73469 18735 ft 418 kts 323°
2026-05-04 02:46 20.06087 -98.75306 19069 ft 420 kts 323°
2026-05-04 02:46 20.08454 -98.77144 19403 ft 422 kts 323°
2026-05-04 02:46 20.10826 -98.78977 19730 ft 423 kts 323°
2026-05-04 02:46 20.13223 -98.80825 20064 ft 425 kts 323°
2026-05-04 02:47 20.15618 -98.82671 20395 ft 426 kts 323°
2026-05-04 02:47 20.18024 -98.84539 20707 ft 428 kts 323°
2026-05-04 02:47 20.20447 -98.86396 21015 ft 430 kts 327°
2026-05-04 02:47 20.23091 -98.87894 21316 ft 432 kts 337°
2026-05-04 02:48 20.25962 -98.88861 21618 ft 435 kts 347°
2026-05-04 02:48 20.28974 -98.89251 21923 ft 438 kts 357°
2026-05-04 02:48 20.32035 -98.89204 22214 ft 441 kts
2026-05-04 02:48 20.35039 -98.88559 22488 ft 445 kts 19°
2026-05-04 02:49 20.37791 -98.87002 22748 ft 451 kts 35°
2026-05-04 02:49 20.40021 -98.84640 23008 ft 457 kts 52°
2026-05-04 02:49 20.41512 -98.81677 23257 ft 463 kts 69°
2026-05-04 02:49 20.42125 -98.78261 23495 ft 469 kts 87°
2026-05-04 02:50 20.41894 -98.74818 23715 ft 473 kts 95°
2026-05-04 02:50 20.41514 -98.71285 23923 ft 475 kts 95°
2026-05-04 02:50 20.41130 -98.67823 24101 ft 476 kts 95°
2026-05-04 02:50 20.40737 -98.64316 24304 ft 478 kts 95°
2026-05-04 02:51 20.40345 -98.60788 24506 ft 479 kts 95°
2026-05-04 02:51 20.39951 -98.57214 24709 ft 481 kts 95°
2026-05-04 02:51 20.39563 -98.53668 24919 ft 482 kts 95°
2026-05-04 02:51 20.39179 -98.50112 25108 ft 483 kts 95°
2026-05-04 02:52 20.38801 -98.46589 25308 ft 485 kts 95°
2026-05-04 02:52 20.38412 -98.42973 25494 ft 486 kts 95°
2026-05-04 02:52 20.38028 -98.39427 25663 ft 488 kts 95°
2026-05-04 02:52 20.37637 -98.35836 25850 ft 489 kts 95°
2026-05-04 02:53 20.37242 -98.32230 26053 ft 491 kts 95°
2026-05-04 02:53 20.36844 -98.28611 26240 ft 492 kts 95°
2026-05-04 02:53 20.36445 -98.24983 26430 ft 493 kts 95°
2026-05-04 02:53 20.36043 -98.21352 26617 ft 495 kts 95°
2026-05-04 02:54 20.35640 -98.17706 26791 ft 496 kts 95°
2026-05-04 02:54 20.35236 -98.14042 26970 ft 497 kts 95°
2026-05-04 02:54 20.34827 -98.10384 27155 ft 498 kts 95°
2026-05-04 02:54 20.34413 -98.06707 27430 ft 498 kts 95°
2026-05-04 02:55 20.33591 -97.99403 27980 ft 496 kts 95°
2026-05-04 02:55 20.33182 -97.95757 28239 ft 496 kts 94°
2026-05-04 02:55 20.32773 -97.92112 28496 ft 496 kts 94°
2026-05-04 02:56 20.32363 -97.88463 28744 ft 496 kts 94°
2026-05-04 02:56 20.31954 -97.84822 29008 ft 496 kts 94°
2026-05-04 02:56 20.31540 -97.81166 29268 ft 496 kts 94°
2026-05-04 02:56 20.31127 -97.77522 29543 ft 495 kts 94°
2026-05-04 02:57 20.30716 -97.73884 29811 ft 495 kts 94°
2026-05-04 02:57 20.30307 -97.70246 30084 ft 494 kts 94°
2026-05-04 02:57 20.29899 -97.66616 30357 ft 493 kts 94°
2026-05-04 02:57 20.29487 -97.62986 30603 ft 493 kts 94°
2026-05-04 02:58 20.29072 -97.59365 30823 ft 493 kts 94°
2026-05-04 02:58 20.28653 -97.55745 31004 ft 494 kts 94°
2026-05-04 02:58 20.28232 -97.52112 31184 ft 494 kts 95°
2026-05-04 02:58 20.27818 -97.48523 31392 ft 494 kts 94°
2026-05-04 02:59 20.27401 -97.44889 31608 ft 494 kts 94°
2026-05-04 02:59 20.26985 -97.41255 31819 ft 495 kts 94°
2026-05-04 02:59 20.26569 -97.37623 32030 ft 495 kts 94°
2026-05-04 02:59 20.26151 -97.33986 32255 ft 495 kts 95°
2026-05-04 03:00 20.25729 -97.30345 32468 ft 495 kts 95°
2026-05-04 03:00 20.25307 -97.26715 32687 ft 495 kts 95°
2026-05-04 03:00 20.24884 -97.23078 32906 ft 495 kts 95°
2026-05-04 03:00 20.24463 -97.19441 33126 ft 495 kts 95°
2026-05-04 03:01 20.24040 -97.15803 33354 ft 495 kts 95°
2026-05-04 03:01 20.23614 -97.12166 33579 ft 494 kts 95°
2026-05-04 03:01 20.23186 -97.08537 33795 ft 494 kts 95°
2026-05-04 03:01 20.22758 -97.04916 34026 ft 494 kts 95°
2026-05-04 03:02 20.22328 -97.01284 34231 ft 494 kts 95°
2026-05-04 03:02 20.21896 -96.97642 34418 ft 494 kts 95°
2026-05-04 03:02 20.21467 -96.94010 34611 ft 494 kts 95°
2026-05-04 03:02 20.21041 -96.90389 34805 ft 494 kts 95°
2026-05-04 03:03 20.20614 -96.86759 34996 ft 494 kts 95°
2026-05-04 03:03 20.20186 -96.83130 35108 ft 495 kts 95°
2026-05-04 03:03 20.19700 -96.79492 35130 ft 496 kts 100°
2026-05-04 03:04 20.17378 -96.72648 35124 ft 497 kts 119°
2026-05-04 03:04 20.13329 -96.66627 35120 ft 497 kts 129°
2026-05-04 03:05 20.09091 -96.60874 35120 ft 498 kts 128°
2026-05-04 03:05 20.04824 -96.55072 35127 ft 498 kts 128°
2026-05-04 03:06 20.00558 -96.49280 35111 ft 497 kts 128°
2026-05-04 03:06 19.96291 -96.43510 35130 ft 495 kts 129°
2026-05-04 03:07 19.92047 -96.37777 35133 ft 493 kts 129°
2026-05-04 03:07 19.87822 -96.32055 35132 ft 492 kts 129°
2026-05-04 03:08 19.83603 -96.26340 35135 ft 491 kts 129°
2026-05-04 03:08 19.79385 -96.20638 35111 ft 491 kts 129°
2026-05-04 03:09 19.75157 -96.14950 35116 ft 490 kts 129°
2026-05-04 03:09 19.70955 -96.09309 35111 ft 490 kts 129°
2026-05-04 03:10 19.66735 -96.03632 35103 ft 490 kts 130°
2026-05-04 03:10 19.62517 -95.97952 35104 ft 489 kts 130°
2026-05-04 03:11 19.58300 -95.92283 35097 ft 489 kts 130°
2026-05-04 03:11 19.54076 -95.86623 35098 ft 489 kts 130°
2026-05-04 03:12 19.49852 -95.80963 35112 ft 489 kts 130°
2026-05-04 03:12 19.45639 -95.75313 35100 ft 488 kts 130°
2026-05-04 03:13 19.41432 -95.69670 35116 ft 488 kts 130°
2026-05-04 03:13 19.37232 -95.64051 35096 ft 487 kts 130°
2026-05-04 03:14 19.33014 -95.58430 35094 ft 487 kts 130°
2026-05-04 03:14 19.28795 -95.52810 35091 ft 488 kts 130°
2026-05-04 03:15 19.24572 -95.47178 35096 ft 488 kts 129°
2026-05-04 03:15 19.20376 -95.41583 35092 ft 488 kts 130°
2026-05-04 03:16 19.16153 -95.35954 35096 ft 488 kts 130°
2026-05-04 03:16 19.11921 -95.30331 35086 ft 488 kts 130°
2026-05-04 03:17 19.08406 -95.25677 35090 ft 487 kts 130°
2026-05-04 03:17 19.04179 -95.20073 35096 ft 487 kts 129°
2026-05-04 03:18 18.99964 -95.14471 35103 ft 486 kts 129°
2026-05-04 03:18 18.95757 -95.08885 35101 ft 486 kts 129°
2026-05-04 03:19 18.91543 -95.03312 35105 ft 485 kts 129°
2026-05-04 03:19 18.87319 -94.97744 35093 ft 485 kts 129°
2026-05-04 03:20 18.83109 -94.92185 35098 ft 485 kts 129°
2026-05-04 03:20 18.78900 -94.86632 35088 ft 484 kts 129°
2026-05-04 03:21 18.74696 -94.81069 35101 ft 484 kts 129°
2026-05-04 03:21 18.70492 -94.75526 35098 ft 484 kts 129°
2026-05-04 03:22 18.66284 -94.69994 35097 ft 483 kts 129°
2026-05-04 03:22 18.62102 -94.64506 35091 ft 483 kts 129°
2026-05-04 03:23 18.57899 -94.58983 35090 ft 483 kts 129°
2026-05-04 03:23 18.53701 -94.53459 35082 ft 483 kts 129°
2026-05-04 03:24 18.49496 -94.47935 35085 ft 482 kts 129°
2026-05-04 03:24 18.45300 -94.42420 35084 ft 482 kts 129°
2026-05-04 03:25 18.41100 -94.36921 35075 ft 482 kts 130°
2026-05-04 03:25 18.36891 -94.31433 35090 ft 482 kts 130°
2026-05-04 03:26 18.32690 -94.25950 35089 ft 481 kts 130°
2026-05-04 03:26 18.28497 -94.20472 35077 ft 480 kts 130°
2026-05-04 03:27 18.24316 -94.15007 35086 ft 479 kts 130°
2026-05-04 03:27 18.20131 -94.09554 35074 ft 479 kts 130°
2026-05-04 03:28 18.15944 -94.04097 35069 ft 478 kts 130°
2026-05-04 03:28 18.11763 -93.98655 35069 ft 478 kts 130°
2026-05-04 03:29 18.07584 -93.93219 35070 ft 478 kts 130°
2026-05-04 03:29 18.03421 -93.87815 35067 ft 478 kts 130°
2026-05-04 03:30 17.99238 -93.82387 35065 ft 478 kts 130°
2026-05-04 03:30 17.95056 -93.76954 35062 ft 478 kts 130°
2026-05-04 03:31 17.90868 -93.71522 35058 ft 479 kts 130°
2026-05-04 03:31 17.86665 -93.66077 35055 ft 479 kts 130°
2026-05-04 03:32 17.82463 -93.60644 35061 ft 479 kts 130°
2026-05-04 03:32 17.78258 -93.55212 35058 ft 479 kts 130°
2026-05-04 03:33 17.74056 -93.49782 35064 ft 480 kts 130°
2026-05-04 03:33 17.69852 -93.44348 35078 ft 479 kts 130°
2026-05-04 03:34 17.65644 -93.38920 35080 ft 479 kts 130°
2026-05-04 03:34 17.61444 -93.33509 35078 ft 478 kts 130°
2026-05-04 03:35 17.57246 -93.28109 35087 ft 478 kts 130°
2026-05-04 03:35 17.53052 -93.22709 35084 ft 478 kts 130°
2026-05-04 03:36 17.48860 -93.17310 35078 ft 478 kts 130°
2026-05-04 03:36 17.44686 -93.11946 35087 ft 477 kts 130°
2026-05-04 03:37 17.40485 -93.06559 35092 ft 477 kts 130°
2026-05-04 03:37 17.36285 -93.01174 35085 ft 478 kts 130°
2026-05-04 03:38 17.32075 -92.95778 35087 ft 478 kts 130°
2026-05-04 03:38 17.27862 -92.90390 35104 ft 478 kts 130°
2026-05-04 03:39 17.23642 -92.84996 35103 ft 478 kts 130°
2026-05-04 03:39 17.19433 -92.79606 35119 ft 478 kts 130°
2026-05-04 03:40 17.15212 -92.74213 35140 ft 479 kts 130°
2026-05-04 03:40 17.10969 -92.68798 35139 ft 486 kts 130°
2026-05-04 03:41 17.06664 -92.63322 35128 ft 495 kts 130°
2026-05-04 03:41 17.02259 -92.57703 35149 ft 504 kts 130°
2026-05-04 03:42 16.97838 -92.52075 35142 ft 491 kts 130°
2026-05-04 03:42 16.93576 -92.46639 35153 ft 480 kts 130°
2026-05-04 03:43 16.89349 -92.41276 35159 ft 478 kts 130°
2026-05-04 03:43 16.85118 -92.35910 35160 ft 478 kts 130°
2026-05-04 03:44 16.80891 -92.30540 35160 ft 478 kts 130°
2026-05-04 03:44 16.76668 -92.25175 35142 ft 479 kts 130°
2026-05-04 03:45 16.72442 -92.19807 35146 ft 479 kts 130°
2026-05-04 03:45 16.68207 -92.14441 35145 ft 479 kts 130°
2026-05-04 03:46 16.63964 -92.09080 35148 ft 480 kts 131°
2026-05-04 03:46 16.59707 -92.03706 35150 ft 480 kts 131°
2026-05-04 03:47 16.55457 -91.98338 35145 ft 480 kts 130°
2026-05-04 03:47 16.51201 -91.92968 35147 ft 480 kts 131°
2026-05-04 03:48 16.46942 -91.87595 35143 ft 481 kts 130°
2026-05-04 03:48 16.42708 -91.82254 35130 ft 482 kts 130°
2026-05-04 03:49 16.38429 -91.76869 35129 ft 482 kts 130°
2026-05-04 03:49 16.34153 -91.71494 35134 ft 482 kts 130°
2026-05-04 03:50 16.29892 -91.66125 35142 ft 480 kts 130°
2026-05-04 03:50 16.25643 -91.60772 35151 ft 479 kts 130°
2026-05-04 03:51 16.21404 -91.55438 35148 ft 478 kts 131°
2026-05-04 03:51 16.17160 -91.50121 35160 ft 477 kts 130°
2026-05-04 03:52 16.12933 -91.44821 35164 ft 475 kts 130°
2026-05-04 03:52 16.08722 -91.39536 35166 ft 474 kts 129°
2026-05-04 03:53 16.05091 -91.33817 35177 ft 474 kts 122°
2026-05-04 03:53 16.01684 -91.27957 35172 ft 473 kts 121°
2026-05-04 03:54 15.98278 -91.22103 35151 ft 473 kts 121°
2026-05-04 03:54 15.94865 -91.16258 35148 ft 473 kts 122°
2026-05-04 03:55 15.91446 -91.10420 35183 ft 473 kts 121°
2026-05-04 03:55 15.88038 -91.04577 35167 ft 473 kts 121°
2026-05-04 03:56 15.84626 -90.98749 35164 ft 473 kts 121°
2026-05-04 03:56 15.81204 -90.92909 35164 ft 473 kts 121°
2026-05-04 03:57 15.77798 -90.87079 35189 ft 473 kts 121°
2026-05-04 03:57 15.74375 -90.81247 35188 ft 473 kts 121°
2026-05-04 03:58 15.69230 -90.72518 35176 ft 473 kts 121°
2026-05-04 03:58 15.65821 -90.66714 35173 ft 474 kts 121°
2026-05-04 03:59 15.62388 -90.60868 35197 ft 474 kts 122°
2026-05-04 03:59 15.58945 -90.55029 35198 ft 475 kts 122°
2026-05-04 04:00 15.55503 -90.49192 35200 ft 475 kts 122°
2026-05-04 04:00 15.52058 -90.43344 35209 ft 476 kts 122°
2026-05-04 04:01 15.48605 -90.37494 35236 ft 476 kts 122°
2026-05-04 04:01 15.45145 -90.31635 35232 ft 476 kts 122°
2026-05-04 04:02 15.42271 -90.26763 35220 ft 477 kts 122°
2026-05-04 04:02 15.38801 -90.20890 35222 ft 477 kts 122°
2026-05-04 04:03 15.35331 -90.15031 35198 ft 477 kts 122°
2026-05-04 04:03 15.31858 -90.09178 35199 ft 477 kts 122°
2026-05-04 04:04 15.28391 -90.03325 35192 ft 477 kts 122°
2026-05-04 04:04 15.24932 -89.97474 35158 ft 476 kts 122°
2026-05-04 04:05 15.21458 -89.91626 35152 ft 477 kts 122°
2026-05-04 04:05 15.17969 -89.85759 35149 ft 478 kts 122°
2026-05-04 04:06 15.14483 -89.79894 35151 ft 479 kts 122°
2026-05-04 04:06 15.10996 -89.74023 35156 ft 479 kts 122°
2026-05-04 04:07 15.07493 -89.68140 35130 ft 480 kts 122°
2026-05-04 04:07 15.03994 -89.62265 35135 ft 479 kts 122°
2026-05-04 04:08 15.00496 -89.56397 35135 ft 479 kts 122°
2026-05-04 04:08 14.97016 -89.50558 35112 ft 479 kts 122°
2026-05-04 04:09 14.93512 -89.44699 35110 ft 479 kts 122°
2026-05-04 04:09 14.90012 -89.38840 35101 ft 478 kts 123°
2026-05-04 04:10 14.86516 -89.32985 35109 ft 478 kts 123°
2026-05-04 04:10 14.83025 -89.27156 35107 ft 477 kts 123°
2026-05-04 04:11 14.79525 -89.21325 35102 ft 477 kts 123°
2026-05-04 04:11 14.76039 -89.15514 35103 ft 476 kts 123°
2026-05-04 04:12 14.72541 -89.09695 35098 ft 476 kts 124°
2026-05-04 04:12 14.69047 -89.03882 35080 ft 476 kts 123°
2026-05-04 04:13 14.65561 -88.98069 35082 ft 476 kts 123°
2026-05-04 04:13 14.62068 -88.92265 35075 ft 476 kts 123°
2026-05-04 04:14 14.58597 -88.86502 35072 ft 476 kts 123°
2026-05-04 04:14 14.55106 -88.80700 35072 ft 476 kts 123°
2026-05-04 04:15 14.51620 -88.74911 35076 ft 475 kts 123°
2026-05-04 04:15 14.48124 -88.69110 35076 ft 475 kts 123°
2026-05-04 04:16 14.44636 -88.63329 35073 ft 474 kts 124°
2026-05-04 04:16 14.41148 -88.57554 35081 ft 475 kts 124°
2026-05-04 04:17 14.37656 -88.51783 35079 ft 474 kts 123°
2026-05-04 04:17 14.34164 -88.46011 35090 ft 474 kts 123°
2026-05-04 04:18 14.30674 -88.40242 35094 ft 474 kts 123°
2026-05-04 04:18 14.27187 -88.34479 35092 ft 473 kts 124°
2026-05-04 04:19 14.23696 -88.28728 35108 ft 473 kts 124°
2026-05-04 04:19 14.20214 -88.22981 35092 ft 473 kts 123°
2026-05-04 04:20 14.16731 -88.17235 35078 ft 473 kts 123°
2026-05-04 04:20 14.13241 -88.11486 35090 ft 473 kts 123°
2026-05-04 04:21 14.09743 -88.05725 35088 ft 474 kts 123°
2026-05-04 04:21 14.06247 -87.99980 35077 ft 474 kts 123°
2026-05-04 04:22 14.02745 -87.94235 35075 ft 474 kts 123°
2026-05-04 04:22 13.99236 -87.88474 35075 ft 475 kts 123°
2026-05-04 04:23 13.95722 -87.82699 35083 ft 476 kts 123°
2026-05-04 04:23 13.92209 -87.76928 35094 ft 475 kts 123°
2026-05-04 04:24 13.88687 -87.71169 35069 ft 476 kts 123°
2026-05-04 04:24 13.85157 -87.65400 35092 ft 476 kts 122°
2026-05-04 04:25 13.81662 -87.59673 35102 ft 475 kts 122°
2026-05-04 04:25 13.78145 -87.53916 35132 ft 474 kts 122°
2026-05-04 04:26 13.74636 -87.48190 35098 ft 474 kts 122°
2026-05-04 04:26 13.71122 -87.42453 35092 ft 474 kts 122°
2026-05-04 04:27 13.67613 -87.36717 35113 ft 474 kts 122°
2026-05-04 04:27 13.64102 -87.30984 35117 ft 473 kts 122°
2026-05-04 04:28 13.60589 -87.25259 35088 ft 473 kts 122°
2026-05-04 04:28 13.57079 -87.19545 35101 ft 473 kts 122°
2026-05-04 04:29 13.53570 -87.13832 35103 ft 472 kts 122°
2026-05-04 04:29 13.50063 -87.08125 35107 ft 472 kts 122°
2026-05-04 04:30 13.46553 -87.02427 35085 ft 472 kts 123°
2026-05-04 04:30 13.43050 -86.96737 35098 ft 470 kts 123°
2026-05-04 04:31 13.39558 -86.91064 35093 ft 470 kts 124°
2026-05-04 04:31 13.36093 -86.85423 35090 ft 469 kts 123°
2026-05-04 04:32 13.32606 -86.79765 35068 ft 469 kts 124°
2026-05-04 04:32 13.29111 -86.74109 35062 ft 469 kts 124°
2026-05-04 04:33 13.25621 -86.68457 35060 ft 469 kts 124°
2026-05-04 04:33 13.22129 -86.62808 35052 ft 469 kts 123°
2026-05-04 04:34 13.18639 -86.57163 35050 ft 469 kts 123°
2026-05-04 04:34 13.15148 -86.51520 35036 ft 469 kts 124°
2026-05-04 04:35 13.11637 -86.45868 35033 ft 468 kts 124°
2026-05-04 04:35 13.08142 -86.40236 35035 ft 468 kts 124°
2026-05-04 04:36 13.04651 -86.34596 35037 ft 468 kts 124°
2026-05-04 04:36 13.01184 -86.29006 35020 ft 468 kts 124°
2026-05-04 04:37 12.94195 -86.17754 35020 ft 468 kts 124°
2026-05-04 04:38 12.90690 -86.12121 35018 ft 468 kts 124°
2026-05-04 04:38 12.87193 -86.06499 35006 ft 468 kts 124°
2026-05-04 04:39 12.83702 -86.00878 35001 ft 467 kts 124°
2026-05-04 04:39 12.80211 -85.95271 34999 ft 467 kts 124°
2026-05-04 04:40 12.76708 -85.89662 34997 ft 467 kts 124°
2026-05-04 04:40 12.73208 -85.84050 34988 ft 467 kts 124°
2026-05-04 04:41 12.69707 -85.78439 34988 ft 468 kts 124°
2026-05-04 04:41 12.66209 -85.72825 34993 ft 467 kts 123°
2026-05-04 04:42 12.62713 -85.67215 34994 ft 467 kts 124°
2026-05-04 04:42 12.59232 -85.61637 34995 ft 468 kts 124°
2026-05-04 04:43 12.55723 -85.56039 34991 ft 468 kts 125°
2026-05-04 04:43 12.52208 -85.50434 34992 ft 468 kts 124°
2026-05-04 04:44 12.48701 -85.44830 34990 ft 467 kts 124°
2026-05-04 04:44 12.45194 -85.39222 34998 ft 467 kts 124°
2026-05-04 04:45 12.41687 -85.33628 34987 ft 467 kts 124°
2026-05-04 04:47 12.29406 -85.14058 34999 ft 467 kts 123°
2026-05-04 04:47 12.25911 -85.08505 34996 ft 467 kts 123°
2026-05-04 04:48 12.22400 -85.02932 34993 ft 467 kts 123°
2026-05-04 04:49 12.14189 -84.89869 34989 ft 468 kts 123°
2026-05-04 04:49 12.10660 -84.84271 34982 ft 469 kts 123°
2026-05-04 04:50 12.07129 -84.78674 34987 ft 469 kts 123°
2026-05-04 04:50 12.03587 -84.73068 34989 ft 469 kts 124°
2026-05-04 04:51 12.00046 -84.67471 34994 ft 469 kts 123°
2026-05-04 04:51 11.96511 -84.61874 34998 ft 469 kts 123°
2026-05-04 04:52 11.92980 -84.56273 35002 ft 468 kts 123°
2026-05-04 04:52 11.89453 -84.50692 35003 ft 468 kts 124°
2026-05-04 04:53 11.85923 -84.45123 35002 ft 467 kts 124°
2026-05-04 04:53 11.82391 -84.39547 35000 ft 467 kts 123°
2026-05-04 04:54 11.75171 -84.28140 34999 ft 467 kts 123°
2026-05-04 04:55 11.71643 -84.22573 35000 ft 467 kts 123°
2026-05-04 04:55 11.68109 -84.17000 35002 ft 467 kts 123°
2026-05-04 04:56 11.64576 -84.11442 35000 ft 467 kts 124°
2026-05-04 04:56 11.61049 -84.05890 35004 ft 467 kts 124°
2026-05-04 04:57 11.57526 -84.00342 35006 ft 466 kts 124°
2026-05-04 04:57 11.53999 -83.94793 35006 ft 465 kts 123°
2026-05-04 04:58 11.50480 -83.89263 34998 ft 465 kts 124°
2026-05-04 04:58 11.46965 -83.83732 34998 ft 465 kts 124°
2026-05-04 04:59 11.43461 -83.78237 34996 ft 465 kts 124°
2026-05-04 04:59 11.39936 -83.72716 34989 ft 465 kts 124°
2026-05-04 05:00 11.36412 -83.67188 34989 ft 465 kts 124°
2026-05-04 05:01 11.31123 -83.58901 34986 ft 465 kts 124°
2026-05-04 05:01 11.27604 -83.53377 34989 ft 465 kts 124°
2026-05-04 05:02 11.24069 -83.47850 34988 ft 465 kts 124°
2026-05-04 05:02 11.20537 -83.42335 34983 ft 465 kts 124°
2026-05-04 05:03 11.17007 -83.36820 34981 ft 465 kts 124°
2026-05-04 05:04 11.10001 -83.25746 34984 ft 465 kts 123°
2026-05-04 05:04 11.06525 -83.20199 34983 ft 465 kts 123°
2026-05-04 05:06 10.92551 -82.98047 34981 ft 465 kts 123°
2026-05-04 05:07 10.89051 -82.92523 34983 ft 464 kts 123°
2026-05-04 05:07 10.85553 -82.86996 34981 ft 464 kts 123°
2026-05-04 05:09 10.69826 -82.62136 34979 ft 464 kts 123°
2026-05-04 05:10 10.66371 -82.56584 34980 ft 465 kts 123°
2026-05-04 05:10 10.62974 -82.51044 34980 ft 465 kts 122°
2026-05-04 05:11 10.59543 -82.45467 34977 ft 464 kts 123°
2026-05-04 05:11 10.56104 -82.39909 34983 ft 465 kts 123°
2026-05-04 05:12 10.52632 -82.34324 35212 ft 464 kts 123°
2026-05-04 05:12 10.50911 -82.31545 35464 ft 463 kts 123°
2026-05-04 05:12 10.49200 -82.28780 35692 ft 462 kts 123°
2026-05-04 05:13 10.47486 -82.26010 35889 ft 462 kts 123°
2026-05-04 05:13 10.45799 -82.23291 35961 ft 461 kts 123°
2026-05-04 05:13 10.42362 -82.17748 35964 ft 461 kts 123°
2026-05-04 05:14 10.38974 -82.12269 35967 ft 460 kts 123°
2026-05-04 05:14 10.35561 -82.06771 35967 ft 460 kts 123°
2026-05-04 05:15 10.33308 -82.03157 35967 ft 460 kts 123°
2026-05-04 05:15 10.29879 -81.97653 35966 ft 461 kts 123°
2026-05-04 05:16 10.26461 -81.92153 35967 ft 461 kts 123°
2026-05-04 05:16 10.23039 -81.86654 35969 ft 461 kts 123°
2026-05-04 05:17 10.20188 -81.82081 35969 ft 461 kts 123°
2026-05-04 05:17 10.16180 -81.75651 35971 ft 461 kts 123°
2026-05-04 05:18 10.12760 -81.70149 35973 ft 461 kts 123°
2026-05-04 05:18 10.09913 -81.65573 35971 ft 461 kts 123°
2026-05-04 05:19 10.06487 -81.60081 35977 ft 461 kts 123°
2026-05-04 05:19 10.02500 -81.53693 35978 ft 460 kts 123°
2026-05-04 05:20 9.99633 -81.49100 35973 ft 460 kts 123°
2026-05-04 05:20 9.96199 -81.43612 35977 ft 460 kts 123°
2026-05-04 05:21 9.92793 -81.38159 35978 ft 460 kts 123°
2026-05-04 05:21 9.89366 -81.32684 35977 ft 460 kts 123°
2026-05-04 05:22 9.85933 -81.27201 35971 ft 460 kts 123°
2026-05-04 05:22 9.82510 -81.21720 35973 ft 460 kts 123°
2026-05-04 05:23 9.79083 -81.16238 35977 ft 460 kts 123°
2026-05-04 05:23 9.75662 -81.10756 35974 ft 460 kts 123°
2026-05-04 05:24 9.72231 -81.05273 35974 ft 460 kts 123°
2026-05-04 05:24 9.68799 -80.99801 35979 ft 460 kts 122°
2026-05-04 05:25 9.65372 -80.94342 35977 ft 459 kts 123°
2026-05-04 05:25 9.61940 -80.88878 35974 ft 459 kts 122°
2026-05-04 05:26 9.59229 -80.84554 35973 ft 459 kts 122°
2026-05-04 05:26 9.55819 -80.79095 35970 ft 459 kts 122°
2026-05-04 05:28 9.42204 -80.57292 35966 ft 458 kts 122°
2026-05-04 05:29 9.38784 -80.51828 35960 ft 459 kts 122°
2026-05-04 05:29 9.35368 -80.46366 35959 ft 459 kts 122°
2026-05-04 05:31 9.21664 -80.24486 35956 ft 460 kts 122°
2026-05-04 05:32 9.18229 -80.19013 35954 ft 461 kts 122°
2026-05-04 05:33 9.13083 -80.10810 35950 ft 461 kts 122°
2026-05-04 05:33 9.09651 -80.05333 35955 ft 461 kts 122°
2026-05-04 05:34 9.06207 -79.99853 35951 ft 461 kts 122°
2026-05-04 05:34 9.02770 -79.94380 35953 ft 462 kts 122°
2026-05-04 05:35 8.99342 -79.88930 35962 ft 462 kts 122°
2026-05-04 05:35 8.95896 -79.83443 35960 ft 462 kts 122°
2026-05-04 05:36 8.92474 -79.77989 35964 ft 462 kts 122°
2026-05-04 05:36 8.89005 -79.72483 35967 ft 461 kts 123°
2026-05-04 05:37 8.85565 -79.67017 35942 ft 460 kts 122°
2026-05-04 05:37 8.82147 -79.61588 35937 ft 460 kts 122°
2026-05-04 05:38 8.76352 -79.53919 35933 ft 459 kts 137°
2026-05-04 05:38 8.71661 -79.49518 35930 ft 460 kts 137°
2026-05-04 05:39 8.64624 -79.42915 35949 ft 460 kts 137°
2026-05-04 05:40 8.57610 -79.36308 35938 ft 460 kts 137°
2026-05-04 05:40 8.52932 -79.31902 35931 ft 460 kts 137°
2026-05-04 05:41 8.48268 -79.27522 35931 ft 460 kts 137°
2026-05-04 05:41 8.43552 -79.23090 35931 ft 460 kts 137°
2026-05-04 05:42 8.38886 -79.18708 35934 ft 461 kts 137°
2026-05-04 05:42 8.34190 -79.14301 35938 ft 461 kts 137°
2026-05-04 05:43 8.29487 -79.09881 35937 ft 462 kts 137°
2026-05-04 05:45 8.10628 -78.92204 35956 ft 462 kts 137°
2026-05-04 05:47 7.91817 -78.74586 35939 ft 461 kts 137°
2026-05-04 05:47 7.87116 -78.70176 35936 ft 462 kts 137°
2026-05-04 05:48 7.82414 -78.65767 35939 ft 461 kts 137°
2026-05-04 05:48 7.77707 -78.61370 35932 ft 461 kts 137°
2026-05-04 05:49 7.72992 -78.56970 35927 ft 462 kts 137°
2026-05-04 05:49 7.68283 -78.52567 35927 ft 462 kts 137°
2026-05-04 05:51 7.49468 -78.34985 35925 ft 462 kts 137°
2026-05-04 05:52 7.44745 -78.30578 35923 ft 462 kts 137°
2026-05-04 05:52 7.40030 -78.26180 35926 ft 461 kts 137°
2026-05-04 05:54 7.21195 -78.08627 35936 ft 461 kts 137°
2026-05-04 05:55 7.16482 -78.04229 35932 ft 461 kts 137°
2026-05-04 05:55 7.11774 -77.99833 35930 ft 461 kts 137°
2026-05-04 05:56 7.07081 -77.95424 35934 ft 461 kts 136°
2026-05-04 05:56 7.02444 -77.90968 35940 ft 461 kts 136°
2026-05-04 05:57 6.97814 -77.86512 35937 ft 461 kts 136°
2026-05-04 05:57 6.93195 -77.82095 35938 ft 461 kts 136°
2026-05-04 05:58 6.88515 -77.77630 35945 ft 461 kts 136°
2026-05-04 05:58 6.83866 -77.73203 35946 ft 461 kts 136°
2026-05-04 05:59 6.79246 -77.68793 35940 ft 461 kts 136°
2026-05-04 05:59 6.74596 -77.64350 35942 ft 461 kts 136°
2026-05-04 06:00 6.69946 -77.59920 35942 ft 460 kts 136°
2026-05-04 06:00 6.65304 -77.55487 35945 ft 460 kts 136°
2026-05-04 06:01 6.60664 -77.51068 35952 ft 459 kts 136°
2026-05-04 06:03 6.42093 -77.33399 35955 ft 460 kts 136°
2026-05-04 06:05 6.21224 -77.13538 35945 ft 461 kts 136°
2026-05-04 06:06 6.16569 -77.09116 35951 ft 461 kts 136°
2026-05-04 06:06 6.11915 -77.04693 35956 ft 461 kts 136°
2026-05-04 06:07 6.07267 -77.00266 35956 ft 461 kts 136°
2026-05-04 06:07 6.03395 -76.96581 35958 ft 461 kts 136°
2026-05-04 06:08 5.98739 -76.92154 35956 ft 461 kts 136°
2026-05-04 06:08 5.94071 -76.87733 35956 ft 461 kts 136°
2026-05-04 06:09 5.89412 -76.83319 35962 ft 460 kts 136°
2026-05-04 06:11 5.70886 -76.65661 35958 ft 457 kts 131°
2026-05-04 06:13 5.59080 -76.43213 35973 ft 456 kts 115°
2026-05-04 06:14 5.49388 -76.23203 36008 ft 456 kts 115°
2026-05-04 06:15 5.46623 -76.17473 36042 ft 457 kts 115°
2026-05-04 06:15 5.43853 -76.11735 36030 ft 457 kts 115°
2026-05-04 06:16 5.41079 -76.05991 36040 ft 457 kts 115°
2026-05-04 06:16 5.38302 -76.00248 36057 ft 457 kts 115°
2026-05-04 06:17 5.35524 -75.94508 36058 ft 457 kts 115°
2026-05-04 06:17 5.32742 -75.88766 36060 ft 457 kts 115°
2026-05-04 06:18 5.29969 -75.83026 36059 ft 458 kts 115°
2026-05-04 06:20 5.18814 -75.60003 36236 ft 459 kts 115°
2026-05-04 06:21 5.11073 -75.46022 33121 ft 453 kts 128°
2026-05-04 06:21 5.09125 -75.43576 32164 ft 446 kts 128°
2026-05-04 06:22 5.07197 -75.41149 31170 ft 442 kts 128°
2026-05-04 06:22 5.05301 -75.38762 30079 ft 445 kts 128°
2026-05-04 06:25 4.82848 -75.07158 21121 ft 363 kts 102°
2026-05-04 06:25 4.82322 -75.04683 20817 ft 363 kts 102°
2026-05-04 06:26 4.81800 -75.02217 20428 ft 361 kts 102°
2026-05-04 06:26 4.81280 -74.99765 20008 ft 358 kts 102°
2026-05-04 06:26 4.80762 -74.97328 19588 ft 356 kts 102°
2026-05-04 06:26 4.80255 -74.94940 19191 ft 353 kts 102°
2026-05-04 06:27 4.78219 -74.85372 17362 ft 348 kts 102°
2026-05-04 06:28 4.77721 -74.83020 17060 ft 342 kts 102°
2026-05-04 06:28 4.77275 -74.80717 16933 ft 330 kts 96°
2026-05-04 06:28 4.77299 -74.78453 16753 ft 323 kts 82°
2026-05-04 06:28 4.77870 -74.76309 16325 ft 316 kts 70°
2026-05-04 06:29 4.78672 -74.74277 16073 ft 312 kts 70°
2026-05-04 06:29 4.79453 -74.72278 15864 ft 300 kts 70°
2026-05-04 06:29 4.80189 -74.70379 15615 ft 286 kts 71°
2026-05-04 06:29 4.80901 -74.68535 15411 ft 283 kts 70°
2026-05-04 06:30 4.81608 -74.66695 15209 ft 282 kts 71°
2026-05-04 06:30 4.82309 -74.64864 15004 ft 282 kts 71°
2026-05-04 06:30 4.83009 -74.63034 14810 ft 281 kts 71°
2026-05-04 06:30 4.83707 -74.61210 14594 ft 279 kts 71°
2026-05-04 06:31 4.84401 -74.59402 14393 ft 278 kts 70°
2026-05-04 06:31 4.85096 -74.57594 14184 ft 277 kts 71°
2026-05-04 06:31 4.85791 -74.55791 13977 ft 276 kts 71°
2026-05-04 06:31 4.86480 -74.54001 13769 ft 275 kts 71°
2026-05-04 06:32 4.87171 -74.52212 13550 ft 275 kts 70°
2026-05-04 06:33 4.89740 -74.39637 12680 ft 270 kts 120°
2026-05-04 06:34 4.88647 -74.38103 12714 ft 269 kts 126°
2026-05-04 06:34 4.87538 -74.36642 12735 ft 258 kts 126°
2026-05-04 06:34 4.86493 -74.35256 12785 ft 250 kts 126°
2026-05-04 06:34 4.85451 -74.33867 12760 ft 250 kts 126°
2026-05-04 06:35 4.84394 -74.32466 12374 ft 253 kts 126°
2026-05-04 06:36 4.77100 -74.22849 10234 ft 219 kts 127°
2026-05-04 06:37 4.76217 -74.21679 9928 ft 200 kts 127°
2026-05-04 06:37 4.75414 -74.20615 9709 ft 182 kts 126°
2026-05-04 06:37 4.74686 -74.19652 9486 ft 169 kts 127°
2026-05-04 06:37 4.73978 -74.18714 9216 ft 164 kts 127°
2026-05-04 06:38 4.73299 -74.17816 8996 ft 163 kts 127°
2026-05-04 06:38 4.72612 -74.16892 8820 ft 163 kts 127°
2026-05-04 06:40 4.69975 -74.13618 8372 ft 0 kts 164°
2026-05-04 06:40 4.69931 -74.13607 8372 ft 9 kts 191°
2026-05-04 06:41 4.69899 -74.13649 8373 ft 6 kts 239°
2026-05-04 06:41 4.69883 -74.13679 8373 ft 4 kts 247°
2026-05-04 06:41 4.69880 -74.13699 8373 ft 2 kts 266°
2026-05-04 06:41 4.69863 -74.13735 8373 ft 6 kts 230°
2026-05-04 06:42 4.69844 -74.13763 8373 ft 4 kts 247°
2026-05-04 06:42 4.69849 -74.13797 8373 ft 6 kts 295°
2026-05-04 06:42 4.69872 -74.13831 8373 ft 8 kts 307°
2026-05-04 06:44 4.70149 -74.14078 8373 ft 11 kts 307°
2026-05-04 06:44 4.70193 -74.14137 8373 ft 11 kts 307°
2026-05-04 06:44 4.70218 -74.14202 8373 ft 10 kts 253°
2026-05-04 06:45 4.70171 -74.14248 8369 ft 9 kts 222°
2026-05-04 06:45 4.70161 -74.14279 8372 ft 0 kts 268°
2026-05-04 06:45 4.70161 -74.14280 8372 ft 0 kts 263°
2026-05-04 06:46 4.70141 -74.14301 8373 ft 5 kts 219°
2026-05-04 06:46 4.70126 -74.14313 8373 ft 0 kts 218°
2026-05-04 06:50 4.70122 -74.14316 8373 ft 0 kts 216°